Home > Weather > Buxar > Past weeks

Flag for India Past Weather in Buxar, Bihar, India — Yesterday and Last 2 Weeks

Now
90 °F

Haze.


Feels Like: 98 °F
Forecast: 84 / 106 °F
Wind: 3 mph from East

Location: Lucknow / Amausi

Current Time: May 27, 2016 at 2:07:08 AM

Latest Report: May 27, 2016 at 1:00 AM


Visibility: 2 mi

Pressure: 29.50 "Hg

Humidity: 59%

Dew Point: 73 °F

Location of BuxarLocation

Past Weather in Buxar — Graph

°F

Buxar Temperature Yesterday

Maximum temperature yesterday: 102 °F (at 2:00 PM)
Minimum temperature yesterday: 75 °F (at 3:00 AM)
Average temperature yesterday: 92 °F

High & Low Weather Summary for the Past Weeks

 TemperatureHumidityPressure
High115 °F (May 16, 1:30 PM)100% (May 22, 9:00 AM)29.77 "Hg (May 22, 9:00 AM)
Low73 °F (May 24, 3:00 AM)12% (May 16, 5:00 PM)29.39 "Hg (May 17, 6:30 PM)
Average95 °F48%29.52 "Hg
* Reported May 12 1:00 AM — May 27 1:00 AM, Buxar, Weather by CustomWeather, © 2016

Note: Actual official high and low records may vary slightly from our data, if they occured in-between our weather recording intervals... More about our weather records

Advertising

Buxar Weather History for the Previous 24 Hours

Scroll right to see more
 ConditionsComfort  
Time TempWeatherWind HumidityBarometerVisibility
1:00 AM
Fri, May 27
90 °FHaze.3 mph59%29.50 "Hg2 mi
12:00 AM91 °FHaze.No wind59%29.50 "Hg2 mi
11:00 PM
Thu, May 26
93 °FHaze.No wind56%29.50 "Hg2 mi
10:00 PM93 °FHaze.No wind59%29.50 "Hg2 mi
9:00 PM93 °FHaze.No wind59%29.47 "Hg2 mi
8:30 PM95 °FHaze.No wind53%29.47 "Hg2 mi
8:00 PM95 °FHaze.No wind53%29.47 "Hg2 mi
7:30 PM97 °FHaze.No wind50%29.47 "Hg2 mi
7:00 PM97 °FHaze.3 mph50%29.47 "Hg2 mi
6:30 PM99 °FHaze.5 mph44%29.47 "Hg2 mi
6:00 PM100 °FHaze.5 mph45%29.45 "Hg3 mi
5:30 PM100 °FHaze.5 mph45%29.47 "Hg3 mi
5:00 PM102 °FHaze.6 mph40%29.45 "Hg3 mi
4:30 PM102 °FHaze.3 mph40%29.47 "Hg3 mi
4:00 PM102 °FHaze.3 mph40%29.47 "Hg3 mi
3:30 PM102 °FHaze.6 mph40%29.47 "Hg3 mi
3:00 PM102 °FHaze.5 mph40%29.47 "Hg3 mi
2:30 PM102 °FHaze.5 mph40%29.50 "Hg3 mi
2:00 PM102 °FHaze.5 mph37%29.50 "Hg3 mi
1:30 PM100 °FHaze.5 mph37%29.53 "Hg3 mi
1:00 PM100 °FHaze.7 mph37%29.53 "Hg3 mi
12:30 PM100 °FHaze.5 mph37%29.53 "Hg3 mi
12:00 PM99 °FHaze.5 mph39%29.56 "Hg3 mi
11:30 AM97 °FHaze.3 mph42%29.56 "Hg3 mi
11:00 AM95 °FScattered clouds.2 mph44%29.59 "Hg3 mi
10:30 AM95 °FScattered clouds.2 mph44%29.59 "Hg3 mi
10:00 AM93 °FScattered clouds.2 mph47%29.59 "Hg3 mi
9:30 AM90 °FScattered clouds.2 mph52%29.59 "Hg3 mi
8:30 AM84 °FScattered clouds.2 mph62%29.56 "Hg3 mi
8:00 AM84 °FScattered clouds.2 mph58%29.56 "Hg2 mi
7:30 AM81 °FScattered clouds.2 mph66%29.56 "Hg2 mi
7:00 AM81 °FScattered clouds.3 mph66%29.56 "Hg3 mi
6:30 AM79 °FScattered clouds.No wind70%29.56 "Hg2 mi
6:00 AM75 °FScattered clouds.No wind78%29.53 "Hg2 mi
5:30 AM75 °FPassing clouds.No wind78%29.53 "Hg2 mi
5:00 AM75 °FPassing clouds.No wind78%29.50 "Hg2 mi
3:00 AM75 °FPassing clouds.2 mph78%29.50 "Hg2 mi
2:00 AM77 °FPassing clouds.No wind74%29.50 "Hg2 mi
Weather by CustomWeather, © 2016

See weather overviewHow to use our weather pages